Skip Page Navigation
NASA JPL Caltech
NASA Logo - Jet Propulsion Laboratory + View the NASA Portal
+ Near-Earth Object (NEO) Program
Search JPL
JPL Home Earth Solar System Stars & Galaxies Technology
JPL Solar System Dynamics
BODIES ORBITS EPHEMERIDES TOOLS PHYSICAL DATA DISCOVERY FAQ SITE MAP
JPL Small-Body Database Browser
Search: [ help ]  
43018 (1999 VY2)
Classification: Main-belt Asteroid          SPK-ID: 2043018
Ephemeris | Orbit Diagram | Orbital Elements | Physical Parameters | Discovery Circumstances ]

[ show orbit diagram ]
Orbital Elements at Epoch 2457000.5 (2014-Dec-09.0) TDB
Reference: JPL 15 (heliocentric ecliptic J2000)
 Element Value Uncertainty (1-sigma)   Units 
e .1678029134838847 7.7406e-08  
a 2.815528756318532 2.7956e-08 AU
q 2.343074828010624 2.1532e-07 AU
i 7.851176539063644 7.4269e-06 deg
node 271.9264305592468 6.0087e-05 deg
peri 122.5510400203552 6.4571e-05 deg
M 88.60376216198007 2.1427e-05 deg
tp 2456575.794348837236
(2013-Oct-10.29434884)
0.00010313 JED
period 1725.593030001178
4.72
2.5701e-05
7.037e-08
d
yr
n .2086239302900721 3.1072e-09 deg/d
Q 3.28798268462644 3.2647e-08 AU
  Orbit Determination Parameters
   # obs. used (total)      662  
   data-arc span      8771 days (24.01 yr)  
   first obs. used      1991-01-19  
   last obs. used      2015-01-24  
   planetary ephem.      DE431  
   SB-pert. ephem.      SB431-BIG16  
   condition code      0  
   fit RMS      .60442  
   data source      ORB  
   producer      Otto Matic  
   solution date      2015-Feb-04 14:51:42  

Additional Information
 Earth MOID = 1.36116 AU 
 T_jup = 3.285 
[ show covariance matrix ]

Ephemeris | Orbit Diagram | Orbital Elements | Physical Parameters | Discovery Circumstances ]

Physical Parameter Table
Parameter Symbol Value Units Sigma Reference Notes
absolute magnitude H 13.8 mag n/a MPO266158  

43018 (1999 VY2)          Discovered 1999-Nov-04 by Shimizu, Y., Urata, T. at Nachi-Katsuura (905)
Reference: 20020624/Numbers.arcLast Updated: 2004-04-19

Alternate Designations
 1999 VY2 = 1998 ME31 
Ephemeris | Orbit Diagram | Orbital Elements | Physical Parameters | Discovery Circumstances ]
ABOUT SSD CREDITS/AWARDS PRIVACY/COPYRIGHT GLOSSARY LINKS
FirstGov 2015-Mar-06 11:06 UT
(server date/time)  
NASA Home Page
Site Manager:   Ryan S. Park
Webmaster  Alan B. Chamberlin